[[{"header":{"parameterUnit":"m.s-1","parameterCategory":1,"la1":30.2991,"la2":30.254,"lo1":-89.0895,"lo2":-89.0444,"dy":0.0017,"dx":0.0017,"nx":28,"ny":28,"refTime":"2024-11-27T09:00:00:Z","depth":0,"parameterNumber":2,"parameterNumberName":"U-component_of_WINDS"},"data":[0,0,0,0,0,0,0,0,0,0,0,0,0,0,0,0,0,0,0,0,0,0,0,0,0,0,0,0,0,0,0,0,0,0,0,0,0,0,0,0,0,0,0,0,0,0,0,0,0,0,0,0,0,0,0,0,0,0,-2.3587,-2.3588,0,-2.3668,-2.3669,-2.367,-2.3652,-2.3651,-2.3649,-2.3648,-2.3732,-2.3735,-2.3739,0,0,0,0,0,0,0,0,0,0,0,0,0,-2.3418,-2.3421,-2.3587,-2.3588,-2.3589,-2.3668,-2.3669,-2.367,-2.3653,-2.3651,-2.3649,-2.3647,-2.373,-2.3735,-2.3739,0,0,0,0,0,0,0,0,0,0,0,0,0,-2.3494,-2.3422,-2.3587,-2.359,-2.3591,-2.3668,-2.3669,-2.367,-2.3653,-2.3651,-2.3648,-2.3646,-2.3729,-2.3734,-2.374,-2.3819,0,0,-2.3756,-2.3759,0,0,0,0,0,0,0,0,-2.349,-2.3501,-2.3588,-2.359,-2.3591,-2.3648,-2.364,-2.372,-2.3654,-2.3629,-2.3648,-2.3645,-2.3706,-2.3713,-2.3733,-2.3823,-2.3826,-2.3757,-2.376,-2.3762,-2.3764,0,0,0,0,0,0,0,-2.3485,-2.3497,-2.3619,-2.3589,-2.3591,-2.3587,-2.3596,-2.3655,-2.3679,-2.3631,-2.363,-2.364,-2.3706,-2.3728,-2.3735,-2.3827,-2.3757,-2.3761,-2.3765,-2.3767,-2.3987,-2.3989,0,0,0,0,0,0,-2.3478,-2.3493,-2.3616,-2.3621,-2.3534,-2.3592,-2.3602,-2.3632,-2.3679,-2.3683,-2.3642,-2.3639,-2.372,-2.3728,-2.3738,-2.3833,-2.3762,-2.3767,-2.3771,-2.3984,-2.3988,-2.399,0,0,0,0,0,0,-2.3475,-2.3489,-2.3613,-2.3557,-2.3572,-2.3598,-2.3632,-2.3635,-2.3656,-2.3687,-2.3691,-2.366,-2.3718,-2.373,-2.3799,-2.3836,-2.377,-2.3775,-2.3981,-2.3985,-2.3989,-2.4025,0,0,0,0,0,0,-2.347,-2.3488,-2.3518,-2.3558,-2.3575,-2.3672,-2.3634,-2.3638,-2.3666,-2.3663,-2.3704,-2.3709,-2.3717,-2.3791,-2.3804,-2.3842,-2.3779,-2.3978,-2.3983,-2.3988,-2.402,-2.403,-2.4037,0,0,0,0,0,-2.3464,-2.3525,-2.352,-2.3535,-2.3613,-2.3675,-2.3685,-2.3693,-2.3669,-2.3699,-2.3719,-2.3708,-2.383,-2.3798,-2.3813,-2.3853,-2.3976,-2.3982,-2.3987,-2.4017,-2.4028,-2.4037,0,0,0,0,0,0,-2.3489,-2.353,-2.3525,-2.36,-2.3634,-2.3671,-2.371,-2.3704,-2.3745,-2.3741,-2.3749,-2.3759,-2.3829,-2.3848,-2.3812,-2.3933,-2.39,-2.3909,-2.3917,-2.3928,-2.3936,-2.3929,-2.3784,0,0,0,0,0,-2.3503,-2.3549,-2.3583,-2.3647,-2.3664,-2.3684,-2.3711,-2.3715,-2.375,-2.3764,-2.3789,-2.3824,-2.387,-2.39,-2.3945,-2.4024,-2.4033,-2.4059,-2.4068,-2.4074,-2.4082,-2.4125,-2.4137,-2.4009,-2.4009,-2.4009,0,0,-2.3533,-2.3561,-2.359,-2.3652,-2.3679,-2.3727,-2.3696,-2.3748,-2.3784,-2.3772,-2.3838,-2.3858,-2.3898,-2.3972,-2.4006,-2.399,-2.4119,-2.4082,-2.4087,-2.409,-2.4132,-2.4144,-2.4155,-2.4013,-2.4013,-2.4012,0,0,-2.3611,-2.3638,-2.3693,-2.3721,-2.3762,-2.3775,-2.3789,-2.3828,-2.384,-2.3907,-2.3899,-2.3943,-2.4022,-2.4051,-2.4076,-2.4168,-2.4159,-2.4182,-2.4225,-2.4267,-2.4277,-2.4286,-2.4318,-2.433,-2.4189,-2.419,-2.419,0,-2.3643,-2.3714,-2.3723,-2.3775,-2.3803,-2.3796,-2.3852,-2.3879,-2.3932,-2.3952,-2.3934,-2.4034,-2.4061,-2.4142,-2.4164,-2.4185,-2.4201,-2.4176,-2.4275,-2.4284,-2.4293,-2.4323,-2.4335,-2.4192,-2.4192,-2.4191,-2.4191,0,-2.3751,-2.3801,-2.3841,-2.3892,-2.3925,-2.398,-2.3997,-2.4029,-2.4031,-2.4047,-2.4115,-2.4147,-2.4197,-2.4218,-2.4219,-2.43,-2.4288,-2.4273,-2.424,-2.4307,-2.4336,-2.4348,-2.4195,-2.4195,-2.4194,-2.4193,0,0,-2.3844,-2.3901,-2.3916,-2.3939,-2.3985,-2.4024,-2.4079,-2.4129,-2.4156,-2.4194,-2.424,-2.4309,-2.4295,-2.4323,-2.4329,-2.4366,-2.4436,-2.4346,-2.4347,-2.4361,-2.4526,-2.4536,-2.4549,-2.4432,-2.4434,-2.4436,-2.4522,0,-2.3925,-2.4021,-2.4031,-2.4117,-2.4163,-2.4159,-2.4207,-2.424,-2.4257,-2.4299,-2.4318,-2.4366,-2.4345,-2.4362,-2.4399,-2.442,-2.4469,-2.4414,-2.4474,-2.4476,-2.4462,-2.4565,-2.4575,-2.4655,-2.4534,-2.4536,-2.4537,0,-2.4032,-2.4073,-2.4164,-2.4204,-2.4223,-2.4266,-2.4313,-2.4354,-2.4392,-2.4402,-2.4435,-2.4436,-2.4493,-2.4459,-2.4538,-2.45,-2.4526,-2.4541,-2.4544,-2.4548,-2.4509,-2.457,-2.468,-2.4692,-2.4555,-2.4554,-2.4553,0,-2.4089,-2.4168,-2.4232,-2.4253,-2.4301,-2.4331,-2.4353,-2.439,-2.4419,-2.4461,-2.448,-2.4528,-2.4554,-2.4592,-2.4606,-2.458,-2.4684,-2.4651,-2.4693,-2.4693,-2.4713,-2.4711,-2.4827,-2.4733,-2.4733,-2.4733,-2.4732,0,-2.4178,-2.4233,-2.4258,-2.4297,-2.436,-2.4372,-2.4433,-2.4454,-2.4487,-2.453,-2.453,-2.4571,-2.4588,-2.4632,-2.4644,-2.4707,-2.472,-2.4729,-2.4731,-2.4728,-2.4726,-2.4743,-2.4737,-2.4736,-2.4735,-2.4735,-2.4734,0,-2.4251,-2.427,-2.434,-2.4381,-2.4393,-2.4437,-2.4472,-2.451,-2.4528,-2.4583,-2.4597,-2.4624,-2.4676,-2.4694,-2.4758,-2.4766,-2.4839,-2.4837,-2.4825,-2.4825,-2.4865,-2.4861,-2.4995,-2.5013,-2.4908,-2.4909,-2.491,0,-2.4305,-2.4347,-2.4393,-2.4422,-2.4445,-2.4492,-2.4523,-2.4538,-2.457,-2.4618,-2.465,-2.4702,-2.4744,-2.4828,-2.4853,-2.4902,-2.49,-2.4944,-2.4907,-2.4903,-2.4899,-2.4896,-2.49,-2.495,-2.4951,-2.4952,-2.4953,0,-2.4398,-2.4406,-2.445,-2.4498,-2.4534,-2.4572,-2.4609,-2.4634,-2.4654,-2.469,-2.4743,-2.4776,-2.4841,-2.4893,-2.4943,-2.4966,-2.4963,-2.4965,-2.4977,-2.4972,-2.4963,-2.4967,-2.4842,-2.4961,-2.496,-2.4959,-2.4959,-2.4959,-2.4462,-2.45,-2.4538,-2.4587,-2.4617,-2.4652,-2.469,-2.4713,-2.4758,-2.4811,-2.4818,-2.4875,-2.4914,-2.4982,-2.5007,-2.5053,-2.504,-2.5058,-2.5062,-2.5066,-2.5068,-2.4958,-2.5062,-2.5062,-2.5062,-2.5062,-2.5061,0,-2.4554,-2.4579,-2.4624,-2.4676,-2.4715,-2.4711,-2.4752,-2.4785,-2.4835,-2.4872,-2.4914,-2.4975,-2.5026,-2.5056,-2.5107,-2.5137,-2.5137,-2.515,-2.5147,-2.5152,-2.5077,-2.506,-2.5149,-2.5149,-2.5149,-2.5149,-2.5149,-2.5149,-2.4606,-2.4669,-2.4682,-2.476,-2.4785,-2.4841,-2.4865,-2.4898,-2.4927,-2.4996,-2.5038,-2.5058,-2.5093,-2.5146,-2.5193,-2.52,-2.5218,-2.5232,-2.5238,-2.5167,-2.5157,-2.5149,-2.5133,-2.5236,-2.5236,-2.531,-2.5311,-2.5311]},{"header":{"parameterUnit":"m.s-1","parameterCategory":1,"la1":30.2991,"la2":30.254,"lo1":-89.0895,"lo2":-89.0444,"dy":0.0017,"dx":0.0017,"nx":28,"ny":28,"refTime":"2024-11-27T09:00:00:Z","depth":0,"parameterNumber":3,"parameterNumberName":"V-component_of_WINDS"},"data":[0,0,0,0,0,0,0,0,0,0,0,0,0,0,0,0,0,0,0,0,0,0,0,0,0,0,0,0,0,0,0,0,0,0,0,0,0,0,0,0,0,0,0,0,0,0,0,0,0,0,0,0,0,0,0,0,0,0,0.8925,0.8925,0,0.893,0.893,0.893,0.8915,0.8914,0.8914,0.8913,0.8916,0.8917,0.8917,0,0,0,0,0,0,0,0,0,0,0,0,0,0.8901,0.8902,0.8925,0.8925,0.8925,0.893,0.893,0.893,0.8915,0.8914,0.8914,0.8913,0.8916,0.8917,0.8917,0,0,0,0,0,0,0,0,0,0,0,0,0,0.8909,0.8902,0.8925,0.8918,0.8918,0.893,0.893,0.893,0.8915,0.8914,0.8914,0.8913,0.8916,0.8917,0.8917,0.8936,0,0,0.892,0.892,0,0,0,0,0,0,0,0,0.8909,0.891,0.8919,0.8919,0.8918,0.8921,0.8923,0.8932,0.8915,0.8916,0.8913,0.8913,0.8918,0.8919,0.8921,0.8936,0.8936,0.892,0.892,0.8921,0.8921,0,0,0,0,0,0,0,0.8908,0.891,0.8927,0.8919,0.8919,0.8915,0.8915,0.8924,0.8921,0.8916,0.8915,0.8916,0.8918,0.8921,0.8921,0.8936,0.892,0.8921,0.8921,0.8921,0.8969,0.8969,0,0,0,0,0,0,0.8909,0.891,0.8927,0.8927,0.8912,0.8916,0.8916,0.8921,0.8921,0.892,0.8916,0.8915,0.892,0.892,0.8921,0.8945,0.8921,0.8921,0.8922,0.8968,0.8969,0.897,0,0,0,0,0,0,0.8909,0.8911,0.8927,0.8918,0.892,0.8917,0.8922,0.8921,0.8924,0.8921,0.892,0.892,0.8919,0.892,0.8933,0.8944,0.8922,0.8922,0.8967,0.8968,0.8969,0.899,0,0,0,0,0,0,0.8908,0.8911,0.8918,0.8918,0.892,0.8939,0.8923,0.8922,0.8926,0.8924,0.8924,0.8923,0.8919,0.8932,0.8934,0.8945,0.8923,0.8966,0.8968,0.8969,0.8989,0.8992,0.8995,0,0,0,0,0,0.8907,0.8923,0.8918,0.892,0.8929,0.8939,0.894,0.8935,0.8926,0.8934,0.8932,0.8923,0.8943,0.8934,0.8935,0.8947,0.8965,0.8967,0.8969,0.8987,0.8991,0.8995,0,0,0,0,0,0,0.8922,0.8922,0.8918,0.8934,0.8937,0.8937,0.8946,0.8939,0.8944,0.8943,0.8935,0.8935,0.895,0.8949,0.8939,0.8966,0.8952,0.8955,0.8966,0.897,0.8973,0.8973,0.8924,0,0,0,0,0,0.8928,0.8936,0.8936,0.895,0.8952,0.8949,0.8953,0.8949,0.8951,0.8952,0.8951,0.8954,0.896,0.8965,0.8971,0.8988,0.8989,0.8997,0.9,0.9003,0.9005,0.9016,0.902,0.8976,0.8976,0.8976,0,0,0.8938,0.894,0.8945,0.8953,0.8955,0.8964,0.895,0.8959,0.8966,0.8953,0.8966,0.8966,0.8968,0.8984,0.8991,0.8984,0.9018,0.9005,0.9008,0.9008,0.9019,0.9023,0.9027,0.8977,0.8977,0.8976,0,0,0.8963,0.8965,0.8978,0.898,0.8984,0.8982,0.8985,0.8986,0.8986,0.8999,0.899,0.8997,0.9008,0.9011,0.9014,0.9041,0.9034,0.9043,0.906,0.9071,0.9075,0.9078,0.9089,0.9093,0.9045,0.9045,0.9045,0,0.8976,0.899,0.8985,0.8996,0.9,0.899,0.9004,0.9006,0.9011,0.9014,0.9006,0.9022,0.9022,0.9039,0.9046,0.9048,0.9052,0.9043,0.9075,0.9078,0.908,0.9091,0.9095,0.9047,0.9046,0.9046,0.9046,0,0.9006,0.9016,0.9026,0.9033,0.9038,0.905,0.9047,0.9053,0.9048,0.9047,0.9061,0.9062,0.9068,0.9072,0.9067,0.9089,0.9085,0.9076,0.9062,0.9086,0.9096,0.91,0.9048,0.9048,0.9048,0.9047,0,0,0.904,0.9045,0.9049,0.9053,0.9057,0.9064,0.9076,0.9084,0.9089,0.9093,0.9103,0.9114,0.9107,0.911,0.9105,0.9114,0.9138,0.9105,0.9105,0.9112,0.9164,0.9171,0.9176,0.9133,0.9134,0.9134,0.9164,0,0.9066,0.9088,0.9084,0.9105,0.9115,0.9106,0.9117,0.912,0.9119,0.9127,0.9126,0.9135,0.9123,0.9125,0.9134,0.9133,0.9148,0.9131,0.9143,0.9143,0.9144,0.9181,0.9188,0.9216,0.9168,0.9168,0.9169,0,0.9099,0.9106,0.9128,0.9132,0.9136,0.9146,0.9154,0.9161,0.9165,0.9164,0.9168,0.9162,0.9175,0.9161,0.9178,0.9166,0.917,0.9171,0.9172,0.9174,0.9158,0.9185,0.9225,0.923,0.9174,0.9174,0.9174,0,0.9123,0.9138,0.9154,0.9157,0.9162,0.9169,0.9171,0.9174,0.918,0.9186,0.919,0.9197,0.9201,0.9206,0.9203,0.9193,0.9221,0.9206,0.9221,0.9221,0.9228,0.9228,0.9271,0.9229,0.9229,0.9229,0.9229,0,0.9153,0.9168,0.9165,0.9175,0.9191,0.9187,0.9203,0.9204,0.9207,0.9217,0.9209,0.9218,0.9212,0.9221,0.9218,0.9234,0.9235,0.9235,0.9234,0.9236,0.9237,0.924,0.9238,0.923,0.923,0.9229,0.9229,0,0.9183,0.9182,0.9199,0.9203,0.9204,0.9216,0.9219,0.9228,0.9228,0.924,0.9243,0.9242,0.9252,0.9249,0.9259,0.9257,0.9277,0.9273,0.9276,0.9276,0.9291,0.929,0.9339,0.9346,0.9298,0.9299,0.9299,0,0.9203,0.9214,0.922,0.9227,0.923,0.924,0.9246,0.9242,0.9249,0.9255,0.9264,0.9274,0.9281,0.9298,0.9298,0.9306,0.9303,0.9319,0.9304,0.9306,0.9305,0.9305,0.9306,0.9323,0.9323,0.9324,0.9324,0,0.9239,0.9238,0.9247,0.9257,0.9265,0.9272,0.9278,0.9284,0.9281,0.9288,0.93,0.9306,0.9317,0.9327,0.9335,0.9337,0.933,0.9329,0.9333,0.9336,0.9338,0.9339,0.9286,0.9328,0.9327,0.9327,0.9327,0.9327,0.9265,0.9275,0.9282,0.9293,0.9297,0.9304,0.9314,0.9315,0.9324,0.9334,0.9331,0.9344,0.9349,0.9359,0.9362,0.9372,0.9365,0.9371,0.9372,0.9374,0.9377,0.9336,0.9373,0.9373,0.9373,0.9372,0.9372,0,0.9302,0.9305,0.9316,0.9326,0.9335,0.9329,0.9336,0.9344,0.9355,0.9361,0.9369,0.9382,0.9393,0.9394,0.9403,0.9411,0.9408,0.9414,0.9414,0.9414,0.9381,0.9378,0.9416,0.9416,0.9416,0.9416,0.9416,0.9416,0.9322,0.9339,0.934,0.936,0.9363,0.9377,0.9382,0.9388,0.9393,0.9408,0.9417,0.9418,0.9422,0.9432,0.9441,0.9441,0.9446,0.9453,0.9451,0.9421,0.9416,0.9412,0.9409,0.9453,0.9453,0.9484,0.9484,0.9484]}]]